This is the latest recevied weather packets stored in our database for station/object iz1wiy-2. If no packets are shown the sender has not sent any weather packets the latest 10 day(s).
| Time | Temp. | Humidity | Pressure | Rain* | Wind** | Luminosity | Snow |
|---|---|---|---|---|---|---|---|
| 1777733403 | 20° C | 39% | 1022.2 hPa | 0 mm | - | - | - |
| 1777733104 | 20° C | 38% | 1022.1 hPa | 0 mm | - | - | - |
| 1777732803 | 20° C | 40% | 1022.1 hPa | 0 mm | - | - | - |
| 1777732503 | 20° C | 37% | 1022.2 hPa | 0 mm | - | - | - |
| 1777732204 | 20° C | 36% | 1022.2 hPa | 0 mm | - | - | - |
| 1777731903 | 20° C | 38% | 1022.5 hPa | 0 mm | - | - | - |
| 1777731603 | 20° C | 40% | 1022.6 hPa | 0 mm | - | - | - |
| 1777731303 | 20° C | 37% | 1022.6 hPa | 0 mm | - | - | - |
| 1777731003 | 20° C | 36% | 1022.7 hPa | 0 mm | - | - | - |
| 1777730703 | 20° C | 37% | 1022.7 hPa | 0 mm | - | - | - |
| 1777730404 | 20° C | 37% | 1022.8 hPa | 0 mm | - | - | - |
| 1777730104 | 20° C | 36% | 1022.8 hPa | 0 mm | - | - | - |
| 1777729804 | 20° C | 38% | 1022.9 hPa | 0 mm | - | - | - |
| 1777729503 | 20° C | 34% | 1023 hPa | 0 mm | - | - | - |
| 1777729203 | 20° C | 35% | 1023 hPa | 0 mm | - | - | - |
| 1777728904 | 20° C | 36% | 1023.2 hPa | 0 mm | - | - | - |
| 1777728603 | 20° C | 36% | 1023.2 hPa | 0 mm | - | - | - |
| 1777728304 | 20° C | 36% | 1023.2 hPa | 0 mm | - | - | - |
| 1777728003 | 20.56° C | 37% | 1023.3 hPa | 0 mm | - | - | - |
| 1777727703 | 20° C | 38% | 1023.4 hPa | 0 mm | - | - | - |
| 1777727404 | 20° C | 36% | 1023.5 hPa | 0 mm | - | - | - |
| 1777727103 | 20° C | 38% | 1023.5 hPa | 0 mm | - | - | - |
| 1777726804 | 20° C | 36% | 1023.4 hPa | 0 mm | - | - | - |
| 1777726504 | 20° C | 37% | 1023.5 hPa | 0 mm | - | - | - |
| 1777726203 | 20° C | 35% | 1023.5 hPa | 0 mm | - | - | - |
* Rain latest hour (hover to see other rain measurements)
** Current wind speed in m/s (hover to see current wind gust speed)